{"data":{"norad_id":64569,"epoch":"2026-09-21T22:05:24.573120Z","epoch_age_seconds":58992,"freshness":"FRESH","line1":"1 64569U 25135AT  26264.92042330  .00001235  00000+0  12141-3 0  9991","line2":"2 64569  97.7834  18.2319 0002656  61.3899 298.7588 14.93946808 68327","mean_motion":14.93946808,"eccentricity":0.0002656,"inclination_deg":97.7834,"raan_deg":18.2319,"arg_perigee_deg":61.3899,"mean_anomaly_deg":298.7588,"bstar":0.00012141,"rev_number":6832,"period_min":96.388973977446,"perigee_km":583.79410047207,"apogee_km":587.49326076962,"semimajor_km":6963.7806806208,"source":"CELESTRAK","updated_at":"2026-09-22T09:00:29.850397Z"}}